Location: San Vito
(41.8833°N, 12.9833°E)
Time: 13:40:10
(UTC+00:00)

Cosmos 1605 Rocket - Pass Details

Date: 17 November 2019
Orbit: 944 x 1006 km, 82.9° (Epoch: 10 December)

Event Time Altitude Azimuth Distance (km) Brightness Sun altitude
Exits shadow 03:37:04 66° 256° (WSW) 1,047 3.8 -26.4°
Maximum altitude 03:37:27 68° 279° (W) 1,034 3.8 -26.4°
Drops below altitude 10° 03:43:34 10° 2° (N) 2,688 6.3 -25.2°
Sets 03:46:05 0° 6° (N) 3,632 7.0 -24.8°
